Back to catalog

SHINSEI

MS-F2

AliveScienceLEO
NORAD 5485·PAYLOAD·🇯🇵 Japan

Launched Sep 28, 1971 from Uchinoura Space Center

Loading…

Next Passes (next 24 hours)

TLE

FreshSource: Space-Track

Epoch: Sep 14, 2026, 13:56 UTC

1 05485U 71080A   26257.58059627  .00000040  00000-0  17661-4 0  9991
2 05485  32.0579  76.3167 0640163 270.1535  82.5756 12.74258394560664

Track SHINSEI in real time with AllMySat

Download on the App Store